Location: Hamburg
(53.5500°N, 10.0000°E)
Time: 03:56:25
(UTC+01:00)

Vanguard 1 Rocket - Visible Passes

Search period start: 24 January 2017 00:00
Search period end: 03 February 2017 00:00
Orbit: 650 x 4226 km, 34.3° (Epoch: 22 January)

Date Brightness Start Highest point End Pass type
(mag) Time Alt. Az. Time Alt. Az. Time Alt. Az.
24 Jan 9.7 07:29:55 10° SSW 07:33:08 15° S 07:37:11 10° SE visible
25 Jan 9.7 06:21:22 10° S 06:22:43 11° SSE 06:24:10 10° SSE visible
26 Jan 9.7 07:33:23 10° SSW 07:35:55 13° S 07:38:57 10° SSE visible
27 Jan 9.6 06:24:44 10° S 06:25:28 10° S 06:26:13 10° SSE visible
